Date String (YYYY-MM-DD hh:mm:ss) UTC,Instrument flags,absolute air pressure of the measurement (hPa),sample flow rate (lpm),inlet stack bypass flow (lpm),air temperature of the measurement (°C),ambient temperature measured by the external sensor (°C),aerosol sample conditioner tube jacket temperature (°C),OPC LED temperature (°C),internal box temperature (°C),relative humidity of the measurement (%),span deviation,mass concentration of particles derived from Lorenz-Mie calculation of OPC scattering (μg/m³),mass concentration of particles derived from Lorenz-Mie calculation of OPC scattering (μg/m³),mass concentration of particles derived from Lorenz-Mie calculation of OPC scattering (μg/m³)
DateTimeUTC,F1_M11,P_M11,Q1_M11,Q2_M11,T1_M11,T2_M11,T3_M11,T4_M11,T5_M11,U1_M11,ZSPAN_M11,X0_M11,X2_M11,X1_M11
2024-01-21 13:00:00,SystemResetWarning,0820.7,5.01,000.00,018.9,018.3,000.0,027.3,020.2,17.2,0000.0,0000.72,0000.53,0000.46
2024-01-21 13:01:00,SystemResetWarning,0820.6,5.00,000.00,018.9,018.3,000.0,027.3,020.2,17.3,0000.0,0000.71,0000.53,0000.46
2024-01-21 13:02:00,SystemResetWarning,0820.7,4.99,000.00,018.9,018.3,000.0,027.3,020.2,17.3,0000.0,0000.74,0000.54,0000.46
2024-01-21 13:03:00,SystemResetWarning,0820.7,5.00,000.00,018.9,018.3,000.0,027.3,020.2,17.4,0000.0,0000.75,0000.55,0000.46
2024-01-21 13:04:00,SystemResetWarning,0820.6,5.00,000.00,018.9,018.3,000.0,027.3,020.2,17.4,0000.0,0000.80,0000.58,0000.46
2024-01-21 13:05:00,SystemResetWarning,0820.6,5.01,000.00,018.9,018.3,000.0,027.3,020.2,17.4,0000.0,0000.83,0000.59,0000.45
2024-01-21 13:06:00,SystemResetWarning,0820.6,5.00,000.00,018.9,018.3,000.0,027.3,020.2,17.5,0000.0,0000.90,0000.60,0000.46
2024-01-21 13:07:00,SystemResetWarning,0820.7,5.01,000.00,018.9,018.3,000.0,027.3,020.2,17.5,0000.0,0001.67,0000.62,0000.46
2024-01-21 13:08:00,SystemResetWarning,0820.7,5.00,000.00,018.9,018.3,000.0,027.3,020.2,17.5,0000.0,0001.71,0000.61,0000.45
2024-01-21 13:09:00,SystemResetWarning,0820.8,5.00,000.00,018.9,018.3,000.0,027.3,020.2,17.7,0000.0,0001.70,0000.60,0000.45
2024-01-21 13:10:00,SystemResetWarning,0820.8,5.00,000.00,018.9,018.3,000.0,027.3,020.2,17.6,0000.0,0001.71,0000.60,0000.45
2024-01-21 13:11:00,SystemResetWarning,0820.7,4.99,000.00,018.9,018.3,000.0,027.3,020.2,17.5,0000.0,0001.69,0000.60,0000.45
2024-01-21 13:12:00,SystemResetWarning,0820.7,5.00,000.00,018.9,018.3,000.0,027.3,020.2,17.5,0000.0,0001.64,0000.58,0000.45
2024-01-21 13:13:00,SystemResetWarning,0820.7,5.00,000.00,019.0,018.4,000.0,027.3,020.2,17.5,0000.0,0001.66,0000.59,0000.45
2024-01-21 13:14:00,SystemResetWarning,0820.7,5.01,000.00,019.0,018.3,000.0,027.3,020.2,17.5,0000.0,0001.71,0000.61,0000.45
2024-01-21 13:15:00,SystemResetWarning,0820.7,5.01,000.00,019.0,018.4,000.0,027.3,020.2,17.5,0000.0,0001.68,0000.58,0000.45
2024-01-21 13:16:00,SystemResetWarning,0820.7,5.00,000.00,019.0,018.4,000.0,027.3,020.3,17.6,0000.0,0001.77,0000.67,0000.55
2024-01-21 13:17:00,SystemResetWarning,0820.7,5.00,000.00,019.0,018.4,000.0,027.3,020.3,17.6,0000.0,0003.50,0001.51,0001.35
2024-01-21 13:18:00,SystemResetWarning,0820.7,4.99,000.00,019.0,018.4,000.0,027.3,020.3,17.6,0000.0,0004.43,0002.71,0002.53
2024-01-21 13:19:00,SystemResetWarning,0820.7,5.00,000.00,019.0,018.4,000.0,027.3,020.3,17.5,0000.0,0006.18,0003.71,0003.55
2024-01-21 13:20:00,SystemResetWarning,0820.6,5.00,000.00,019.0,018.4,000.0,027.3,020.3,17.5,0000.0,0007.54,0004.43,0004.23
2024-01-21 13:21:00,SystemResetWarning,0820.7,4.99,000.00,019.0,018.4,000.0,027.3,020.3,17.5,0000.0,0008.35,0005.10,0004.85
2024-01-21 13:22:00,SystemResetWarning,0820.6,5.00,000.00,019.0,018.4,000.0,027.4,020.3,17.5,0000.0,0009.49,0005.70,0005.39
2024-01-21 13:23:00,SystemResetWarning,0820.7,5.00,000.00,019.0,018.4,000.0,027.4,020.3,17.5,0000.0,0010.29,0006.15,0005.80
2024-01-21 13:24:00,SystemResetWarning,0820.7,5.01,000.00,019.0,018.4,000.0,027.4,020.3,17.5,0000.0,0011.34,0006.63,0006.21
2024-01-21 13:25:00,SystemResetWarning,0820.6,5.01,000.00,019.0,018.4,000.0,027.4,020.3,17.5,0000.0,0012.74,0007.11,0006.63
2024-01-21 13:26:00,SystemResetWarning,0820.7,5.00,000.00,019.1,018.5,000.0,027.4,020.4,17.5,0000.2,0013.77,0007.55,0007.03
2024-01-21 13:27:00,SystemResetWarning,0820.8,5.01,000.00,019.1,018.5,000.0,027.4,020.4,17.6,0000.8,0015.09,0008.02,0007.44
2024-01-21 13:28:00,SystemResetWarning,0820.6,4.99,000.00,019.1,018.5,000.0,027.4,020.4,17.6,0000.4,0015.32,0008.15,0007.54
2024-01-21 13:29:00,SystemResetWarning,0820.7,5.00,000.00,019.1,018.5,000.0,027.4,020.4,17.6,0000.2,0015.15,0007.92,0007.30
2024-01-21 13:30:00,SystemResetWarning,0820.7,4.99,000.00,019.1,018.5,000.0,027.4,020.4,17.6,0000.0,0015.02,0007.62,0006.95
2024-01-21 13:31:00,SystemResetWarning,0820.6,5.00,000.00,019.1,018.5,000.0,027.4,020.4,17.6,0000.0,0014.64,0007.22,0006.53
2024-01-21 13:32:00,SystemResetWarning,0820.4,5.00,000.00,019.1,018.5,000.0,027.4,020.4,17.5,0000.0,0014.36,0006.81,0006.14
2024-01-21 13:33:00,SystemResetWarning,0820.5,5.01,000.00,019.1,018.5,000.0,027.4,020.4,17.6,0000.0,0013.63,0006.38,0005.75
2024-01-21 13:34:00,SystemResetWarning,0820.6,5.00,000.00,019.1,018.5,000.0,027.4,020.4,17.6,0000.0,0013.11,0006.18,0005.56
2024-01-21 13:35:00,SystemResetWarning,0820.6,4.99,000.00,019.1,018.5,000.0,027.4,020.4,17.6,0000.0,0012.66,0006.02,0005.41
2024-01-21 13:36:00,SystemResetWarning,0820.5,4.99,000.00,019.1,018.5,000.0,027.4,020.4,17.6,0000.0,0011.55,0005.72,0005.15
2024-01-21 13:37:00,SystemResetWarning,0820.5,5.01,000.00,019.1,018.5,000.0,027.4,020.4,17.6,0000.0,0010.71,0005.44,0004.88
2024-01-21 13:38:00,SystemResetWarning,0820.5,5.01,000.00,019.1,018.5,000.0,027.4,020.4,17.5,0000.0,0009.71,0005.24,0004.69
2024-01-21 13:39:00,SystemResetWarning,0820.5,5.01,000.00,019.1,018.5,000.0,027.5,020.4,17.5,0000.0,0009.39,0004.96,0004.42
2024-01-21 13:40:00,SystemResetWarning,0820.6,5.00,000.00,019.1,018.5,000.0,027.5,020.4,17.5,0000.0,0008.67,0004.74,0004.19
2024-01-21 13:41:00,SystemResetWarning,0820.5,5.00,000.00,019.1,018.5,000.0,027.5,020.4,17.5,0000.0,0008.25,0004.46,0003.97
2024-01-21 13:42:00,SystemResetWarning,0820.5,5.00,000.00,019.1,018.5,000.0,027.5,020.4,17.5,0000.0,0008.17,0004.29,0003.82
2024-01-21 13:43:00,SystemResetWarning,0820.6,4.99,000.00,019.1,018.5,000.0,027.5,020.4,17.4,0000.0,0007.95,0004.19,0003.73
2024-01-21 13:44:00,SystemResetWarning,0820.6,4.99,000.00,019.1,018.5,000.0,027.5,020.4,17.3,0000.0,0007.93,0004.16,0003.68
2024-01-21 13:45:00,SystemResetWarning,0820.6,5.00,000.00,019.1,018.5,000.0,027.5,020.4,17.3,0000.0,0007.91,0004.11,0003.61
2024-01-21 13:46:00,SystemResetWarning,0820.7,5.00,000.00,019.1,018.5,000.0,027.5,020.4,17.3,0000.0,0008.58,0004.00,0003.52
2024-01-21 13:47:00,SystemResetWarning,0820.7,5.01,000.00,019.1,018.5,000.0,027.5,020.4,17.3,0000.0,0008.84,0003.97,0003.50
2024-01-21 13:48:00,SystemResetWarning,0820.7,5.01,000.00,019.1,018.6,000.0,027.5,020.4,17.3,0000.0,0008.90,0003.98,0003.49
2024-01-21 13:49:00,SystemResetWarning,0820.8,5.01,000.00,019.1,018.5,000.0,027.5,020.4,17.5,0000.0,0008.85,0003.94,0003.40
2024-01-21 13:50:00,SystemResetWarning,0820.8,5.00,000.00,019.2,018.5,000.0,027.5,020.4,17.8,0000.0,0008.76,0003.89,0003.32
2024-01-21 13:51:00,SystemResetWarning,0820.8,5.00,000.00,019.2,018.5,000.0,027.5,020.4,17.8,0000.0,0008.86,0003.86,0003.27
2024-01-21 13:52:00,SystemResetWarning,0820.9,4.99,000.00,019.1,018.5,000.0,027.5,020.4,17.9,0000.0,0010.16,0003.87,0003.22
2024-01-21 13:53:00,SystemResetWarning,0821.2,5.00,000.00,019.1,018.5,000.0,027.5,020.4,17.8,0000.0,0010.60,0003.76,0003.11
2024-01-21 13:54:00,SystemResetWarning,0821.1,5.00,000.00,019.1,018.5,000.0,027.5,020.4,17.7,0000.0,0010.48,0003.66,0002.93
2024-01-21 13:55:00,SystemResetWarning,0821.4,5.00,000.00,019.1,018.5,000.0,027.5,020.4,17.6,0000.0,0010.54,0003.59,0002.74
2024-01-21 13:56:00,SystemResetWarning,0820.9,5.00,000.00,019.1,018.5,000.0,027.5,020.4,17.6,0000.0,0010.37,0003.45,0002.52
2024-01-21 13:57:00,SystemResetWarning,0821.1,5.01,000.00,019.1,018.5,000.0,027.5,020.4,17.6,0000.0,0009.47,0003.30,0002.28
2024-01-21 13:58:00,SystemResetWarning,0821.1,5.00,000.00,019.1,018.5,000.0,027.5,020.4,17.5,0000.0,0008.82,0003.16,0002.02
2024-01-21 13:59:00,SystemResetWarning,0821.1,5.00,000.00,019.1,018.5,000.0,027.5,020.4,17.3,0000.0,0008.65,0002.95,0001.75
